Sauk Centre, MN

12:45 PM CDT on October 20, 2019 (GMT -0500)
Sauk Centre

Weather History for KD39 - August, 2019

Change the Weather History Date:

Saturday, August 3, 2019

  Actual Average (WUND) Record (WUND)
Temperature  
Mean Temperature 74 °F -  
Max Temperature 83 °F - - (-1)
Min Temperature 64 °F - - (-1)
Cooling Degree Days 8    
Growing Degree Days 24 (Base 50)    
Moisture  
Dew Point 66 °F    
Average Humidity 79    
Maximum Humidity 99    
Minimum Humidity 54    
Precipitation  
Precipitation 0.00 in - - ()
Sea Level Pressure  
Sea Level Pressure 30.10 in    
Wind  
Wind Speed 2 mph (SSE)    
Max Wind Speed 9 mph    
Max Gust Speed -    
Visibility 9 miles    
Events      
Averages and records for this station are not official NWS values.
T = Trace of Precipitation, MM = Missing Value Source: NWS Daily Summary

Daily Weather History Graph

Daily Weather History Graph

Search for Another Location

Airport or City:

Astronomy

Aug. 03, 2019 Rise Set
Actual Time 6:05 AM CDT 8:45 PM CDT
Civil Twilight 5:31 AM CDT 9:19 PM CDT
Nautical Twilight 4:47 AM CDT 10:02 PM CDT
Astronomical Twilight 3:57 AM CDT 10:52 PM CDT
Moon 9:06 AM CDT (8/3) 10:42 PM CDT (8/3)
Length of Visible Light 15h 48m
Length of Day
14h 40m
Waxing Crescent, 10% of the Moon is Illuminated
Aug 3
Waxing Crescent
Aug 7
First Quarter
Aug 15
Full
Aug 23
Last Quarter
Aug 30
New

Hourly Weather History & Observations

Time (CDT) Temp. Heat Index Dew Point Humidity Pressure Visibility Wind Dir Wind Speed Gust Speed Precip Events Conditions
12:15 AM 69.4 °F - 66.7 °F 91% 30.12 in 10.0 mi Calm Calm - N/A   Clear
12:35 AM 68.0 °F - 66.0 °F 93% 30.13 in 10.0 mi ENE 3.5 mph - N/A   Scattered Clouds
12:38 AM 68.0 °F - 66.2 °F 94% 30.13 in 10.0 mi ENE 3.5 mph - N/A   Scattered Clouds
12:58 AM 68.9 °F - 67.1 °F 94% 30.13 in 10.0 mi NE 3.5 mph - N/A   Mostly Cloudy
1:35 AM 68.9 °F - 66.7 °F 93% 30.12 in 10.0 mi Calm Calm - N/A   Overcast
1:36 AM 68.7 °F - 66.7 °F 93% 30.12 in 10.0 mi Calm Calm - N/A   Overcast
1:55 AM 67.1 °F - 66.2 °F 97% 30.12 in 10.0 mi South 3.5 mph - N/A   Overcast
1:56 AM 67.1 °F - 66.2 °F 97% 30.12 in 10.0 mi Calm Calm - N/A   Overcast
2:15 AM 67.1 °F - 66.2 °F 97% 30.12 in 10.0 mi SSW 4.6 mph - N/A   Mostly Cloudy
2:19 AM 66.9 °F - 66.2 °F 98% 30.12 in 10.0 mi SSW 4.6 mph - N/A   Mostly Cloudy
2:37 AM 66.9 °F - 66.0 °F 97% 30.12 in 10.0 mi ENE 4.6 mph - N/A   Overcast
2:55 AM 68.0 °F - 66.9 °F 96% 30.13 in 10.0 mi NE 4.6 mph - N/A   Overcast
3:15 AM 68.4 °F - 67.1 °F 96% 30.13 in 10.0 mi Calm Calm - N/A   Overcast
3:16 AM 68.4 °F - 67.1 °F 96% 30.13 in 10.0 mi Calm Calm - N/A   Overcast
3:35 AM 67.8 °F - 66.4 °F 95% 30.13 in 10.0 mi Calm Calm - N/A   Overcast
3:36 AM 67.6 °F - 66.4 °F 96% 30.13 in 10.0 mi Calm Calm - N/A   Overcast
3:59 AM 68.0 °F - 66.6 °F 95% 30.13 in 10.0 mi Calm Calm - N/A   Mostly Cloudy
4:16 AM 68.0 °F - 66.6 °F 95% 30.13 in 10.0 mi Calm Calm - N/A   Mostly Cloudy
4:35 AM 67.1 °F - 65.8 °F 96% 30.13 in 10.0 mi Calm Calm - N/A   Scattered Clouds
4:36 AM 67.1 °F - 65.8 °F 96% 30.12 in 10.0 mi Calm Calm - N/A   Scattered Clouds
4:55 AM 66.6 °F - 65.8 °F 98% 30.12 in 7.0 mi Calm Calm - N/A   Scattered Clouds
4:56 AM 66.6 °F - 66.0 °F 98% 30.12 in 7.0 mi Calm Calm - N/A   Scattered Clouds
5:15 AM 66.2 °F - 65.7 °F 98% 30.13 in 7.0 mi Calm Calm - N/A   Mostly Cloudy
5:16 AM 66.4 °F - 65.8 °F 98% 30.13 in 7.0 mi Calm Calm - N/A   Mostly Cloudy
5:38 AM 66.2 °F - 65.7 °F 98% 30.13 in 3.0 mi Calm Calm - N/A   Scattered Clouds
5:56 AM 65.1 °F - 64.6 °F 98% 30.13 in 2.0 mi Calm Calm - N/A   Clear
6:16 AM 64.8 °F - 64.4 °F 99% 30.13 in 3.0 mi Calm Calm - N/A   Clear
6:35 AM 65.7 °F - 65.5 °F 99% 30.13 in 5.0 mi Calm Calm - N/A   Clear
6:36 AM 65.7 °F - 65.5 °F 99% 30.13 in 5.0 mi Calm Calm - N/A   Clear
6:55 AM 66.2 °F - 65.7 °F 98% 30.14 in 7.0 mi Calm Calm - N/A   Scattered Clouds
7:16 AM 65.7 °F - 65.1 °F 98% 30.14 in 5.0 mi Calm Calm - N/A   Mostly Cloudy
7:36 AM 66.7 °F - 66.4 °F 99% 30.14 in 10.0 mi Calm Calm - N/A   Overcast
7:55 AM 67.6 °F - 67.1 °F 98% 30.14 in 7.0 mi Calm Calm - N/A   Overcast
7:56 AM 67.6 °F - 67.1 °F 98% 30.14 in 7.0 mi Calm Calm - N/A   Overcast
8:15 AM 68.9 °F - 68.0 °F 97% 30.15 in 10.0 mi Calm Calm - N/A   Overcast
8:20 AM 69.3 °F - 68.0 °F 96% 30.15 in 10.0 mi Calm Calm - N/A   Overcast
8:38 AM 70.2 °F - 67.5 °F 91% 30.16 in 10.0 mi Calm Calm - N/A   Overcast
8:57 AM 71.8 °F - 67.8 °F 87% 30.16 in 10.0 mi Calm Calm - N/A   Overcast
9:16 AM 73.9 °F - 66.4 °F 77% 30.16 in 10.0 mi ESE 4.6 mph - N/A   Overcast
9:36 AM 76.5 °F - 67.3 °F 73% 30.14 in 10.0 mi East 3.5 mph - N/A   Mostly Cloudy
9:55 AM 76.6 °F - 66.7 °F 71% 30.14 in 10.0 mi Calm Calm - N/A   Scattered Clouds
10:15 AM 77.2 °F - 64.9 °F 66% 30.14 in 10.0 mi ENE 3.5 mph - N/A   Scattered Clouds
10:19 AM 77.7 °F - 65.5 °F 66% 30.14 in 10.0 mi Calm Calm - N/A   Scattered Clouds
10:39 AM 78.3 °F - 65.1 °F 64% 30.13 in 10.0 mi ENE 3.5 mph - N/A   Clear
10:56 AM 78.1 °F - 65.7 °F 65% 30.13 in 10.0 mi Calm Calm - N/A   Clear
11:15 AM 78.3 °F - 65.7 °F 65% 30.12 in 10.0 mi East 3.5 mph - N/A   Clear
11:35 AM 78.3 °F - 65.3 °F 64% 30.11 in 10.0 mi East 4.6 mph - N/A   Clear
11:36 AM 78.4 °F - 65.5 °F 64% 30.11 in 10.0 mi East 5.8 mph - N/A   Clear
11:55 AM 79.2 °F - 65.3 °F 62% 30.11 in 10.0 mi Calm Calm - N/A   Clear
11:56 AM 79.3 °F - 65.3 °F 62% 30.11 in 10.0 mi Calm Calm - N/A   Clear
12:15 PM 79.5 °F - 64.6 °F 60% 30.12 in 10.0 mi SSE 3.5 mph - N/A   Clear
12:19 PM 79.9 °F - 65.1 °F 61% 30.12 in 10.0 mi Calm Calm - N/A   Clear
12:38 PM 80.4 °F 81.6 °F 62.6 °F 54% 30.11 in 10.0 mi ESE 5.8 mph - N/A   Clear
12:55 PM 81.0 °F 82.3 °F 63.5 °F 55% 30.11 in 10.0 mi SSE 4.6 mph - N/A   Scattered Clouds
1:15 PM 80.6 °F 82.0 °F 63.7 °F 56% 30.11 in 10.0 mi Calm Calm - N/A   Scattered Clouds
1:16 PM 80.6 °F 82.0 °F 63.7 °F 56% 30.11 in 10.0 mi Calm Calm - N/A   Scattered Clouds
1:35 PM 81.7 °F 83.3 °F 64.6 °F 56% 30.11 in 10.0 mi SE 3.5 mph - N/A   Scattered Clouds
1:36 PM 81.7 °F 83.2 °F 64.2 °F 55% 30.11 in 10.0 mi SSE 5.8 mph - N/A   Scattered Clouds
1:59 PM 81.7 °F 83.6 °F 65.5 °F 58% 30.10 in 10.0 mi Calm Calm - N/A   Clear
2:16 PM 81.5 °F 83.4 °F 65.3 °F 58% 30.10 in 10.0 mi Calm Calm - N/A   Clear
2:35 PM 81.9 °F 83.2 °F 63.9 °F 54% 30.09 in 10.0 mi South 4.6 mph - N/A   Clear
2:55 PM 82.4 °F 83.9 °F 64.4 °F 54% 30.09 in 10.0 mi SSE 4.6 mph - N/A   Clear
2:56 PM 82.2 °F 83.8 °F 64.6 °F 55% 30.09 in 10.0 mi South 3.5 mph - N/A   Clear
3:15 PM 82.4 °F 84.1 °F 64.6 °F 55% 30.09 in 10.0 mi South 3.5 mph - N/A   Clear
3:16 PM 82.4 °F 84.1 °F 64.6 °F 55% 30.09 in 10.0 mi SSE 4.6 mph - N/A   Clear
3:39 PM 83.1 °F 85.2 °F 65.8 °F 56% 30.08 in 10.0 mi SSW 9.2 mph - N/A   Scattered Clouds
3:56 PM 82.6 °F 84.3 °F 65.1 °F 55% 30.08 in 10.0 mi South 6.9 mph - N/A   Scattered Clouds
4:15 PM 80.8 °F 83.2 °F 66.9 °F 63% 30.07 in 10.0 mi SE 4.6 mph - N/A   Scattered Clouds
4:16 PM 81.0 °F 83.4 °F 67.3 °F 63% 30.07 in 10.0 mi SSE 5.8 mph - N/A   Scattered Clouds
4:35 PM 82.8 °F 85.1 °F 66.6 °F 58% 30.07 in 10.0 mi South 5.8 mph - N/A   Scattered Clouds
4:36 PM 82.9 °F 85.4 °F 66.7 °F 58% 30.07 in 10.0 mi SSW 5.8 mph - N/A   Scattered Clouds
4:55 PM 82.9 °F 84.6 °F 64.9 °F 54% 30.07 in 10.0 mi South 8.1 mph - N/A   Scattered Clouds
5:17 PM 82.8 °F 84.5 °F 65.1 °F 55% 30.06 in 10.0 mi South 5.8 mph - N/A   Scattered Clouds
5:36 PM 82.2 °F 84.6 °F 66.6 °F 59% 30.06 in 10.0 mi South 6.9 mph - N/A   Scattered Clouds
5:55 PM 79.0 °F - 67.8 °F 69% 30.06 in 10.0 mi SSW 5.8 mph - N/A   Clear
5:56 PM 79.3 °F - 67.6 °F 67% 30.06 in 10.0 mi SSW 5.8 mph - N/A   Clear
6:15 PM 81.7 °F 84.0 °F 66.4 °F 60% 30.06 in 10.0 mi SSW 8.1 mph - N/A   Clear
6:38 PM 81.0 °F 83.0 °F 66.0 °F 60% 30.06 in 10.0 mi SW 4.6 mph - N/A   Clear
6:57 PM 80.6 °F 82.7 °F 66.2 °F 61% 30.06 in 10.0 mi SSW 4.6 mph - N/A   Clear
7:16 PM 79.7 °F - 66.0 °F 63% 30.05 in 10.0 mi SSW 4.6 mph - N/A   Clear
7:35 PM 78.8 °F - 66.4 °F 66% 30.05 in 10.0 mi SSW 4.6 mph - N/A   Clear
7:36 PM 78.6 °F - 66.4 °F 66% 30.05 in 10.0 mi South 4.6 mph - N/A   Clear
7:55 PM 77.2 °F - 66.7 °F 70% 30.06 in 10.0 mi SSE 3.5 mph - N/A   Clear
7:59 PM 77.0 °F - 67.1 °F 71% 30.06 in 10.0 mi SSE 4.6 mph - N/A   Clear
8:18 PM 76.3 °F - 67.3 °F 74% 30.06 in 10.0 mi South 3.5 mph - N/A   Clear
8:35 PM 75.2 °F - 67.5 °F 77% 30.06 in 10.0 mi Calm Calm - N/A   Clear
8:56 PM 73.6 °F - 67.5 °F 81% 30.06 in 10.0 mi Calm Calm - N/A   Clear
9:15 PM 72.9 °F - 66.6 °F 81% 30.06 in 10.0 mi Calm Calm - N/A   Clear
9:17 PM 72.9 °F - 66.6 °F 81% 30.06 in 10.0 mi Calm Calm - N/A   Clear
9:35 PM 71.6 °F - 66.4 °F 84% 30.07 in 10.0 mi Calm Calm - N/A   Clear
9:36 PM 71.6 °F - 66.4 °F 84% 30.07 in 10.0 mi Calm Calm - N/A   Clear
9:58 PM 69.8 °F - 66.4 °F 89% 30.08 in 10.0 mi Calm Calm - N/A   Clear
10:16 PM 69.6 °F - 66.4 °F 89% 30.08 in 10.0 mi Calm Calm - N/A   Clear
10:36 PM 68.0 °F - 65.8 °F 93% 30.08 in 10.0 mi Calm Calm - N/A   Clear
10:55 PM 66.7 °F - 64.9 °F 94% 30.08 in 10.0 mi Calm Calm - N/A   Clear
10:56 PM 66.6 °F - 64.9 °F 95% 30.08 in 10.0 mi Calm Calm - N/A   Clear
11:15 PM 67.1 °F - 64.8 °F 92% 30.07 in 10.0 mi Calm Calm - N/A   Clear
11:16 PM 67.3 °F - 64.8 °F 92% 30.07 in 10.0 mi Calm Calm - N/A   Clear
11:35 PM 66.9 °F - 64.4 °F 92% 30.07 in 10.0 mi Calm Calm - N/A   Clear
11:58 PM 66.6 °F - 64.4 °F 93% 30.07 in 10.0 mi Calm Calm - N/A   Clear